Regional Weather Roundup
Issued by NWS Northern Indiana

Home | Current Version | Previous Version | Graphics & Text | Print | Product List | Glossary On
Versions: 1 2 3 4 5 6 7 8 9 10 11 12 13 14 15 16 17 18 19 20 21 22 23 24 25 26 27 28 29 30 31 32 33 34 35 36 37 38 39 40 41 42 43 44 45 46 47 48 49 50
000
ASUS43 KIWX 051400
RWRIWX

KIWX WEATHER ROUNDUP
NATIONAL WEATHER SERVICE NORTHERN INDIANA
1000 AM EDT TUE MAY 05 2015

NOTE: "FAIR" INDICATES FEW OR NO CLOUDS BELOW 12,000 FEET WITH NO
SIGNIFICANT WEATHER AND/OR OBSTRUCTIONS TO VISIBILITY.

* THESE STATIONS ARE NOT UNDER NWS QUALITY CONTROL. THEY ALSO MAY NOT
  REPORT WEATHER SUCH AS PRECIPITATION OR FOG.

INZ001>027-051500-
NORTHERN INDIANA

CITY           SKY/WX    TMP DP  RH WIND       PRES   REMARKS
GARY*          CLOUDY    50 N/A N/A NE6       30.21S FOG
SOUTH BEND     CLOUDY    62  60  93 E3        30.21F FOG
ELKHART*       RAIN      61  61 100 SE5       30.22F
GOSHEN         LGT RAIN  62  61  96 SE9       30.21F FOG
ANGOLA*        CLOUDY    54  54 100 E7        30.27R
FORT WAYNE     CLOUDY    64  61  90 CALM      30.26R FOG

$$
INZ028>050-051500-
CENTRAL INDIANA

CITY           SKY/WX    TMP DP  RH WIND       PRES   REMARKS
LAFAYETTE      PTSUNNY   68  59  73 S3        30.21R
KOKOMO*        PTSUNNY   64  63  94 S9        30.22S
MUNCIE*        PTSUNNY   68  59  73 S6        30.24S
INDIANAPOLIS   PTSUNNY   71  56  58 SW13      30.23R

$$
MIZ043>046-050>051-056>058-064>065-071>073-077>080-051500-
SOUTHWEST LOWER MICHIGAN

CITY           SKY/WX    TMP DP  RH WIND       PRES   REMARKS
BATTLE CREEK   LGT RAIN  50  46  86 NE12      30.28R FOG
BENTON HARBOR  CLOUDY    53  52  96 E10       30.22S
COLDWATER*     LGT RAIN  52  50  92 E12       30.25F
HILLSDALE*     RAIN      51  47  86 E6        30.28R
HOLLAND        LGT RAIN  52  47  83 E10       30.29F
GRAND RAPIDS   LGT RAIN  52  42  69 E14       30.31R
KALAMAZOO      LGT RAIN  52  49  89 N9        30.29R FOG
STURGIS*       LGT RAIN N/A N/A N/A E8        30.23F
THREE RIVERS*  LGT RAIN  57  56  95 E8        30.23F

$$
OHZ001>008-015>018-024>025-051500-
NORTHWEST OHIO

CITY           SKY/WX    TMP DP  RH WIND       PRES   REMARKS
DEFIANCE       LGT RAIN  59  57  93 NE7       30.26S FOG
FINDLAY        LGT RAIN  63  60  90 CALM      30.25S FOG
TOLEDO EXPRESS LGT RAIN  56  43  61 E9        30.28R
TOLEDO METCALF LGT RAIN  55  43  63 NE7       30.28S
LIMA           CLOUDY    63  61  93 CALM      30.26R FOG

$$
AND FOR LAKE MICHIGAN COASTAL AND OPEN LAKE BUOY OBSERVATIONS

STATION/POSITION TEMP    WIND        PRES    VSBY  WAVE
                 AIR SEA DIR/SP/G                  HT/PER
                 (F)     (DEG/KT/KT) (MB)    (MI)  (FT/S)
CALUMET HARBOR    46      40/  5/  9   N/A
MICHIGAN CITY     48      10/ 10/ 11   N/A
BURNS HARBOR      50      80/ 11/ 12 1023.0S
SAINT JOSEPH      53      30/  3/ 13 1023.7F
4 MI NW BRIDGMAN  52 49  100/ 10/ 12   N/A           1/ 2
MICHIGAN CITY     49 49   70/ 12/ 14   N/A           2/ 2
MICHIGAN CITY CG     54              1024.6    5/8   1

$$
&&



USA.gov is the U.S. government's official web portal to all federal, state and local government web resources and services.